Location: Byszew
(52.1813°N, 19.2693°E)
Time: 22:38:54
(UTC+00:00)

Cosmos 2322 Rocket - Pass Details

Date: 24 June 2021
Orbit: 833 x 850 km, 71.0° (Epoch: 26 July)

Event Time Altitude Azimuth Distance (km) Brightness Sun altitude
Rises 19:46:02 0° 238° (WSW) 3,410 5.5 -4.9°
Reaches altitude 10° 19:48:40 10° 247° (WSW) 2,478 4.9 -5.1°
Maximum altitude 19:53:56 37° 314° (NW) 1,297 4.1 -5.7°
Drops below altitude 10° 19:59:13 10° 22° (NNE) 2,488 5.1 -6.2°
Sets 20:01:52 0° 30° (NNE) 3,425 5.7 -6.4°
